User: anonymous
Location: Kailua
(21.4020°N, 157.7390°W)
Time: 09:13:47
(UTC-10:00)
Language:

Cosmos 2221 Rocket - Orbit

View from above orbital plane
View from above orbital plane
View from above satellite
View from above satellite

Ground track
Ground track

The orbit data is extracted from the following two-line orbital elements,

1 22237U 92080B   14211.06617023  .00000165  00000-0  19709-4 0  3917
2 22237 082.5124 017.1393 0020796 052.1780 086.9396 14.77874035167866
Epoch (UTC): 30 July 2014 01:35:17
Eccentricity: 0.0020796
inclination: 82.5124°
perigee height: 621 km
apogee height: 650 km
right ascension of ascending node: 17.1393°
argument of perigee: 52.1780°
revolutions per day: 14.77874035
mean anomaly at epoch: 86.9396°
orbit number at epoch: 16786

The dashed part of the orbit path shows where the satellite is in the earth's shadow,  

DLR